Location: Amon Carter Post Office
(32.8281°N, 97.0484°W)
Time: 23:12:30
(UTC+00:00)

Lacrosse 5 rocket - Pass Details

Date: 08 July 2022
Orbit: 456 x 628 km, 57.0° (Epoch: 09 August)

Event Time Altitude Azimuth Distance (km) Brightness Sun altitude
Rises 02:23:54 0° 315° (NW) 2,591 6.8 -8.8°
Reaches altitude 10° 02:26:04 10° 309° (NW) 1,732 5.5 -9.2°
Maximum altitude 02:29:50 47° 235° (SW) 706 2.0 -9.8°
Drops below altitude 10° 02:33:48 10° 161° (SSE) 1,826 3.5 -10.5°
Enters shadow 02:33:55 - 161° (SSE) 1,868 3.5 -10.5°
